[[{"header":{"parameterUnit":"m.s-1","parameterCategory":1,"la1":30.2991,"la2":30.254,"lo1":-89.0895,"lo2":-89.0444,"dy":0.0017,"dx":0.0017,"nx":28,"ny":28,"refTime":"2023-03-13T21:00:00:Z","depth":0,"parameterNumber":2,"parameterNumberName":"U-component_of_WINDS"},"data":[0,0,0,0,0,0,0,0,0,0,0,0,0,0,0,0,0,0,0,0,0,0,0,0,0,0,0,0,0,0,0,0,0,0,0,0,0,0,0,0,0,0,0,0,0,0,0,0,0,0,0,0,0,0,0,0,0,0,0.4953,0.4954,0,0.4962,0.4962,0.4962,0.4978,0.4978,0.4978,0.4979,0.4986,0.4986,0.4986,0,0,0,0,0,0,0,0,0,0,0,0,0,0.495,0.495,0.4953,0.4954,0.4954,0.4962,0.4962,0.4962,0.4978,0.4978,0.4978,0.4979,0.4986,0.4986,0.4986,0,0,0,0,0,0,0,0,0,0,0,0,0,0.4954,0.495,0.4953,0.4962,0.4963,0.4962,0.4962,0.4962,0.4978,0.4978,0.4978,0.4979,0.4986,0.4986,0.4986,0.4976,0,0,0.4986,0.4986,0,0,0,0,0,0,0,0,0.4954,0.4955,0.4961,0.4962,0.4963,0.4969,0.4964,0.4967,0.4977,0.4972,0.4979,0.4979,0.498,0.4981,0.4981,0.4977,0.4977,0.4986,0.4986,0.4986,0.4985,0,0,0,0,0,0,0,0.4954,0.4954,0.4957,0.4961,0.4962,0.4966,0.4967,0.4965,0.4973,0.4973,0.4974,0.4975,0.4981,0.4981,0.4981,0.4977,0.4986,0.4986,0.4985,0.4985,0.4967,0.4966,0,0,0,0,0,0,0.4952,0.4954,0.4957,0.4957,0.496,0.4966,0.4967,0.4967,0.4974,0.4975,0.4974,0.4975,0.4981,0.4981,0.4982,0.4971,0.4986,0.4985,0.4985,0.4967,0.4967,0.4966,0,0,0,0,0,0,0.4952,0.4952,0.4956,0.4956,0.4957,0.4965,0.4965,0.4967,0.4967,0.4975,0.4976,0.4973,0.4981,0.4982,0.4978,0.4972,0.4985,0.4985,0.4968,0.4967,0.4966,0.495,0,0,0,0,0,0,0.4952,0.4952,0.4949,0.4956,0.4957,0.4952,0.4965,0.4966,0.4967,0.4969,0.4974,0.4975,0.4982,0.4978,0.4978,0.4972,0.4985,0.4968,0.4967,0.4967,0.4951,0.4949,0.4947,0,0,0,0,0,0.4952,0.4943,0.4948,0.4949,0.4952,0.4952,0.4952,0.496,0.4966,0.4963,0.4968,0.4975,0.4973,0.4977,0.4977,0.4971,0.4969,0.4968,0.4967,0.4952,0.495,0.4947,0,0,0,0,0,0,0.4934,0.4944,0.495,0.4943,0.4947,0.4954,0.495,0.4957,0.4958,0.4959,0.4969,0.497,0.4965,0.4968,0.4973,0.4963,0.4972,0.4971,0.4961,0.4959,0.4957,0.4956,0.4985,0,0,0,0,0,0.493,0.4929,0.4938,0.4931,0.4933,0.4941,0.4941,0.4947,0.4951,0.4952,0.4957,0.496,0.496,0.496,0.496,0.4953,0.4954,0.4948,0.4946,0.4945,0.4943,0.494,0.4938,0.4963,0.4963,0.4963,0,0,0.492,0.4926,0.4924,0.4928,0.4931,0.493,0.4942,0.494,0.4939,0.4952,0.4948,0.4952,0.4956,0.4951,0.4948,0.4953,0.4937,0.4943,0.4942,0.4942,0.4939,0.4937,0.4935,0.4962,0.4962,0.4962,0,0,0.4902,0.4906,0.4901,0.4905,0.491,0.4916,0.4915,0.4922,0.4925,0.4922,0.4932,0.4931,0.4931,0.4934,0.4935,0.492,0.4927,0.492,0.4909,0.4906,0.4904,0.4902,0.4897,0.4895,0.4919,0.4919,0.4919,0,0.4889,0.4888,0.4898,0.4896,0.4897,0.491,0.4905,0.4908,0.4912,0.4913,0.4919,0.4919,0.4923,0.4918,0.4915,0.4916,0.4915,0.4919,0.4903,0.4902,0.49,0.4896,0.4893,0.4918,0.4918,0.4918,0.4918,0,0.4872,0.4871,0.4867,0.4872,0.4873,0.487,0.4879,0.4879,0.4886,0.4891,0.4889,0.4894,0.4896,0.4895,0.4901,0.4892,0.4895,0.4902,0.4911,0.4897,0.4893,0.4891,0.4917,0.4917,0.4917,0.4918,0,0,0.4842,0.4854,0.4852,0.4855,0.4862,0.4862,0.4859,0.4862,0.4862,0.4865,0.4864,0.4864,0.4871,0.4872,0.4879,0.4876,0.4865,0.4884,0.4884,0.488,0.4855,0.485,0.4847,0.487,0.4869,0.4869,0.4855,0,0.4825,0.4821,0.4831,0.4825,0.4824,0.4837,0.4835,0.4839,0.4845,0.4846,0.4852,0.4852,0.4861,0.4862,0.486,0.4866,0.486,0.4868,0.4868,0.4868,0.4866,0.4845,0.4839,0.4825,0.4853,0.4853,0.4853,0,0.4804,0.4807,0.4801,0.481,0.481,0.4808,0.4812,0.4813,0.4818,0.4823,0.4826,0.4834,0.4832,0.4842,0.484,0.4845,0.4846,0.485,0.4849,0.4849,0.4859,0.4844,0.4821,0.4819,0.485,0.485,0.4851,0,0.4782,0.4785,0.4782,0.4784,0.4795,0.4793,0.4797,0.4804,0.4805,0.4809,0.481,0.4813,0.4814,0.4817,0.4826,0.4832,0.4823,0.4833,0.4827,0.4827,0.4824,0.4823,0.48,0.4825,0.4825,0.4825,0.4825,0,0.4761,0.4757,0.4772,0.477,0.4767,0.4778,0.4774,0.478,0.4786,0.4785,0.4797,0.4796,0.4808,0.4809,0.4817,0.4814,0.4815,0.4819,0.482,0.4817,0.4817,0.4817,0.4818,0.4825,0.4825,0.4825,0.4825,0,0.4735,0.4745,0.4743,0.4754,0.4757,0.4753,0.4762,0.4761,0.4769,0.4768,0.4769,0.478,0.4781,0.4791,0.4795,0.48,0.4795,0.4799,0.4793,0.4794,0.4787,0.4788,0.4763,0.476,0.4787,0.4787,0.4787,0,0.4721,0.4719,0.4729,0.473,0.4734,0.4735,0.4737,0.4749,0.4751,0.4758,0.4756,0.4759,0.4762,0.4765,0.4773,0.4776,0.478,0.4772,0.4781,0.4778,0.478,0.478,0.478,0.4769,0.4769,0.4768,0.4768,0,0.4695,0.4701,0.4703,0.4708,0.471,0.4714,0.4718,0.4718,0.4732,0.4733,0.4736,0.4738,0.4743,0.4746,0.4751,0.4755,0.4764,0.4766,0.4764,0.476,0.4757,0.4759,0.4787,0.4766,0.4766,0.4766,0.4766,0.4766,0.4674,0.4673,0.4681,0.4683,0.4688,0.4693,0.4693,0.4701,0.4703,0.4708,0.4715,0.4717,0.4724,0.4732,0.4736,0.4738,0.4743,0.474,0.474,0.4739,0.4738,0.4758,0.4739,0.4739,0.4739,0.4739,0.4739,0,0.4649,0.4655,0.4657,0.4664,0.4666,0.4675,0.4681,0.4683,0.4684,0.469,0.4693,0.4697,0.47,0.471,0.4714,0.4714,0.4718,0.4714,0.4714,0.4715,0.4733,0.4734,0.4711,0.4711,0.4711,0.4711,0.4711,0.4711,0.4635,0.4633,0.464,0.4641,0.4648,0.465,0.4652,0.4657,0.4662,0.4666,0.4669,0.4675,0.4683,0.4688,0.4692,0.4695,0.4696,0.4691,0.4695,0.4711,0.4714,0.4716,0.4717,0.4691,0.4691,0.4677,0.4677,0.4677]},{"header":{"parameterUnit":"m.s-1","parameterCategory":1,"la1":30.2991,"la2":30.254,"lo1":-89.0895,"lo2":-89.0444,"dy":0.0017,"dx":0.0017,"nx":28,"ny":28,"refTime":"2023-03-13T21:00:00:Z","depth":0,"parameterNumber":3,"parameterNumberName":"V-component_of_WINDS"},"data":[0,0,0,0,0,0,0,0,0,0,0,0,0,0,0,0,0,0,0,0,0,0,0,0,0,0,0,0,0,0,0,0,0,0,0,0,0,0,0,0,0,0,0,0,0,0,0,0,0,0,0,0,0,0,0,0,0,0,-6.7319,-6.7321,0,-6.7452,-6.7453,-6.7455,-6.739,-6.7386,-6.7383,-6.738,-6.7509,-6.7516,-6.7522,0,0,0,0,0,0,0,0,0,0,0,0,0,-6.7004,-6.701,-6.7319,-6.7321,-6.7322,-6.7451,-6.7453,-6.7455,-6.739,-6.7386,-6.7382,-6.7378,-6.7507,-6.7515,-6.7523,0,0,0,0,0,0,0,0,0,0,0,0,0,-6.7139,-6.7012,-6.7319,-6.7306,-6.7306,-6.7451,-6.7453,-6.7455,-6.7391,-6.7386,-6.7381,-6.7376,-6.7504,-6.7514,-6.7524,-6.7687,0,0,-6.7554,-6.7558,0,0,0,0,0,0,0,0,-6.7131,-6.7151,-6.7306,-6.7307,-6.7307,-6.7399,-6.7389,-6.7533,-6.7393,-6.7359,-6.738,-6.7374,-6.7476,-6.7488,-6.7524,-6.7693,-6.7699,-6.7555,-6.7561,-6.7565,-6.7568,0,0,0,0,0,0,0,-6.7122,-6.7144,-6.7371,-6.7308,-6.7309,-6.7291,-6.7305,-6.7416,-6.7444,-6.7361,-6.7357,-6.7374,-6.7476,-6.7515,-6.7527,-6.7701,-6.7555,-6.7564,-6.757,-6.7574,-6.801,-6.8015,0,0,0,0,0,0,-6.7114,-6.7137,-6.7367,-6.7375,-6.7205,-6.7301,-6.7316,-6.7375,-6.7443,-6.7449,-6.7378,-6.737,-6.75,-6.7515,-6.7531,-6.7726,-6.7565,-6.7575,-6.758,-6.8004,-6.8011,-6.8017,0,0,0,0,0,0,-6.7108,-6.7135,-6.7362,-6.7255,-6.7283,-6.7312,-6.7378,-6.738,-6.7419,-6.7456,-6.746,-6.7413,-6.7497,-6.7517,-6.7649,-6.773,-6.7579,-6.7588,-6.7998,-6.8007,-6.8014,-6.8119,0,0,0,0,0,0,-6.7099,-6.7133,-6.7197,-6.7257,-6.7289,-6.748,-6.7383,-6.7386,-6.7437,-6.7428,-6.749,-6.7495,-6.7494,-6.7635,-6.7659,-6.7741,-6.7596,-6.7991,-6.8002,-6.8012,-6.8109,-6.813,-6.8149,0,0,0,0,0,-6.7088,-6.722,-6.7201,-6.7229,-6.7369,-6.7485,-6.7503,-6.7501,-6.7444,-6.7507,-6.7531,-6.7493,-6.7718,-6.7649,-6.7676,-6.7762,-6.7986,-6.7999,-6.8011,-6.81,-6.8126,-6.8148,0,0,0,0,0,0,-6.7166,-6.7228,-6.7207,-6.7363,-6.742,-6.7474,-6.7554,-6.7529,-6.7601,-6.7589,-6.7582,-6.7597,-6.7734,-6.7761,-6.7683,-6.7923,-6.7842,-6.7861,-6.7901,-6.7926,-6.7946,-6.7936,-6.7604,0,0,0,0,0,-6.7203,-6.7293,-6.7341,-6.7474,-6.7503,-6.7524,-6.7574,-6.7568,-6.7626,-6.7648,-6.7682,-6.7737,-6.782,-6.7874,-6.7953,-6.8112,-6.8124,-6.8185,-6.8205,-6.8221,-6.8237,-6.8323,-6.835,-6.8059,-6.8059,-6.8059,0,0,-6.7277,-6.7321,-6.7379,-6.7491,-6.7534,-6.7626,-6.7544,-6.7645,-6.7713,-6.7663,-6.7791,-6.7817,-6.7878,-6.8025,-6.8091,-6.8051,-6.832,-6.8237,-6.825,-6.8257,-6.8338,-6.8366,-6.839,-6.8068,-6.8066,-6.8065,0,0,-6.7459,-6.7503,-6.7618,-6.7664,-6.7731,-6.7744,-6.7772,-6.783,-6.7847,-6.7975,-6.7939,-6.8018,-6.8162,-6.8207,-6.8248,-6.8449,-6.8416,-6.8474,-6.8578,-6.8662,-6.8685,-6.8705,-6.8776,-6.8802,-6.849,-6.849,-6.8491,0,-6.7542,-6.7682,-6.768,-6.7785,-6.7835,-6.7796,-6.7912,-6.7955,-6.8044,-6.8078,-6.8033,-6.8212,-6.825,-6.8407,-6.8456,-6.8491,-6.8521,-6.8467,-6.8682,-6.8703,-6.8721,-6.8789,-6.8816,-6.8497,-6.8496,-6.8496,-6.8495,0,-6.7781,-6.7878,-6.7963,-6.8052,-6.8111,-6.8221,-6.8234,-6.8294,-6.8283,-6.83,-6.8431,-6.8476,-6.8562,-6.8599,-6.8588,-6.8754,-6.8728,-6.8683,-6.8601,-6.8756,-6.8819,-6.8845,-6.8506,-6.8504,-6.8502,-6.85,0,0,-6.8016,-6.8104,-6.8135,-6.8175,-6.8246,-6.832,-6.8427,-6.8514,-6.8566,-6.8628,-6.8716,-6.8839,-6.8798,-6.8846,-6.8839,-6.8913,-6.9068,-6.8859,-6.886,-6.8896,-6.9253,-6.9286,-6.9316,-6.9048,-6.9053,-6.9056,-6.9248,0,-6.8203,-6.8394,-6.8395,-6.8569,-6.8659,-6.8623,-6.8716,-6.8769,-6.8788,-6.8865,-6.8885,-6.8972,-6.8912,-6.894,-6.9012,-6.9035,-6.914,-6.9021,-6.9128,-6.9132,-6.9114,-6.9349,-6.9384,-6.9562,-6.9272,-6.9276,-6.928,0,-6.8447,-6.852,-6.8704,-6.8763,-6.88,-6.8884,-6.8964,-6.9039,-6.9097,-6.9105,-6.9159,-6.9142,-6.9249,-6.9165,-6.9312,-6.9231,-6.9275,-6.9293,-6.93,-6.9309,-6.9215,-6.9364,-6.9619,-6.9646,-6.9318,-6.9315,-6.9313,0,-6.8599,-6.8743,-6.8872,-6.8907,-6.8979,-6.9039,-6.9071,-6.9125,-6.9177,-6.9246,-6.928,-6.936,-6.9403,-6.9464,-6.9468,-6.9407,-6.9616,-6.9533,-6.9625,-6.9625,-6.9669,-6.9666,-6.9935,-6.9699,-6.9699,-6.9698,-6.9698,0,-6.8808,-6.8922,-6.8941,-6.902,-6.9146,-6.9146,-6.927,-6.9297,-6.9345,-6.9427,-6.9401,-6.9478,-6.9479,-6.9558,-6.9561,-6.9682,-6.9701,-6.971,-6.9709,-6.9712,-6.9711,-6.974,-6.9728,-6.9705,-6.9704,-6.9702,-6.9701,0,-6.8999,-6.9017,-6.9155,-6.9213,-6.923,-6.932,-6.9368,-6.9442,-6.9459,-6.9563,-6.9588,-6.9613,-6.9704,-6.9715,-6.982,-6.9822,-6.9967,-6.9954,-6.9948,-6.9946,-7.0037,-7.0028,-7.0333,-7.0372,-7.0112,-7.0114,-7.0116,0,-6.9131,-6.9218,-6.9286,-6.934,-6.9376,-6.9464,-6.9518,-6.952,-6.9577,-6.9651,-6.9716,-6.9805,-6.9876,-7.0022,-7.0049,-7.0129,-7.0117,-7.0218,-7.0128,-7.0128,-7.0117,-7.0112,-7.012,-7.0235,-7.0238,-7.024,-7.0242,0,-6.9363,-6.9367,-6.9447,-6.9531,-6.9596,-6.9661,-6.9722,-6.9768,-6.9778,-6.9843,-6.9937,-6.9992,-7.0101,-7.0188,-7.0268,-7.0298,-7.0272,-7.027,-7.0296,-7.0299,-7.0292,-7.0296,-6.9995,-7.0263,-7.0261,-7.0259,-7.0258,-7.0257,-6.9528,-6.9603,-6.9663,-6.9753,-6.9799,-6.9857,-6.993,-6.9957,-7.0036,-7.0126,-7.0123,-7.0226,-7.0281,-7.0385,-7.0422,-7.0501,-7.0467,-7.0504,-7.0513,-7.0522,-7.0531,-7.028,-7.0515,-7.0515,-7.0514,-7.0514,-7.0513,0,-6.9757,-6.9794,-6.9877,-6.9965,-7.0035,-7.0006,-7.0072,-7.0132,-7.0224,-7.028,-7.0351,-7.0458,-7.0543,-7.0577,-7.066,-7.0717,-7.0707,-7.0739,-7.0734,-7.0741,-7.0557,-7.0527,-7.0745,-7.0745,-7.0745,-7.0745,-7.0745,-7.0745,-6.9885,-7.0012,-7.0024,-7.0173,-7.0208,-7.0311,-7.0351,-7.0404,-7.0448,-7.057,-7.0642,-7.0664,-7.071,-7.0796,-7.0873,-7.088,-7.0911,-7.0948,-7.095,-7.0778,-7.0754,-7.0732,-7.0703,-7.0955,-7.0956,-7.1128,-7.1129,-7.1131]}]]